Regional Weather Roundup
Issued by NWS Little Rock, AR

Home | Current Version | Previous Version | Graphics & Text | Print | Product List | Glossary On
Versions: 1 2 3 4 5 6 7 8 9 10 11 12 13 14 15 16 17 18 19 20 21 22 23 24 25 26 27 28 29 30 31 32 33 34 35 36 37 38 39 40 41 42 43 44 45 46 47 48 49 50
000
ASUS44 KLZK 311305
RWRLZK

WEATHER ROUNDUP FOR ARKANSAS
NATIONAL WEATHER SERVICE LITTLE ROCK AR
700 AM CST SAT JAN 31 2015

NOTE: "FAIR" INDICATES FEW OR NO CLOUDS BELOW 12,000 FEET WITH NO
SIGNIFICANT WEATHER AND/OR OBSTRUCTIONS TO VISIBILITY.

ARZ001-003-010-029-311400-
NORTHWEST ARKANSAS

CITY           SKY/WX    TMP DP  RH WIND       PRES   REMARKS
FAYETTEVILLE   CLOUDY    38  27  64 CALM      30.25R
FORT SMITH     CLOUDY    40  27  59 E9        30.28S
HARRISON       CLOUDY    36  25  64 S12       30.28F
BENTONVILLE    CLOUDY    39  21  48 S3        30.25R
ROGERS         CLOUDY    40  24  53 SE6       30.25R
SILOAM SPGS    CLOUDY    37  23  56 E3        30.25F
HIGHFILL       CLOUDY    39  24  55 CALM      30.23S
SPRINGDALE     MOCLDY    41  25  52 S5        30.27R
$$

ARZ004-005-016-311400-
NORTH CENTRAL ARKANSAS

CITY           SKY/WX    TMP DP  RH WIND       PRES   REMARKS
BATESVILLE     CLOUDY    36  28  75 NE3       30.37R
FLIPPIN        CLOUDY    36  25  64 E3        30.33S
MTN HOME       CLOUDY    36  26  67 CALM      30.32S
$$

ARZ040-041-311400-
WEST CENTRAL ARKANSAS

CITY           SKY/WX    TMP DP  RH WIND       PRES   REMARKS
MENA           CLOUDY    41  30  65 E3        30.28S
MOUNT IDA      CLOUDY    40  28  62 CALM      30.27S
$$

ARZ009-017-025-026-028-311400-
NORTHEAST ARKANSAS

CITY           SKY/WX    TMP DP  RH WIND       PRES   REMARKS
CORNING        PTSUNNY   32  32 100 CALM      30.37F
JONESBORO      CLOUDY    34  29  82 NE5       30.37R WCI  30
NEWPORT        CLOUDY    34  32  92 N5        30.39R WCI  30
WALNUT RIDGE   CLOUDY    34  28  80 N3        30.38S
BLYTHEVILLE    MOCLDY    33  29  85 E3        30.39S
$$

ARZ022-023-033-042-044-311400-
CENTRAL ARKANSAS

CITY           SKY/WX    TMP DP  RH WIND       PRES   REMARKS
LITTLE ROCK    CLOUDY    39  29  67 E6        30.34F
N LITTLE ROCK    N/A     38  31  78 E3        30.34F
JACKSONVILLE   CLOUDY    37  30  76 NE3       30.34S
SEARCY         CLOUDY    37  30  75 NE5       30.38S
HOT SPRINGS    CLOUDY    40  26  57 VRB5      30.33S
RUSSELLVILLE   CLOUDY    39  27  62 VRB3      30.32R
CLINTON        FAIR      36  30  80 CALM      30.35F
$$

ARZ036-311400-
EAST ARKANSAS

CITY           SKY/WX    TMP DP  RH WIND       PRES   REMARKS
WEST MEMPHIS   MOCLDY    37  26  64 SE5       30.36S
$$

ARZ050-053-066-070-073-311400-
SOUTHWEST ARKANSAS

CITY           SKY/WX    TMP DP  RH WIND       PRES   REMARKS
ARKADELPHIA    FAIR      39  32  76 CALM      30.33F
CAMDEN         CLOUDY    37  27  65 CALM      30.34R
TEXARKANA      CLOUDY    40  29  64 E6        30.30S
EL DORADO      CLOUDY    37  29  72 NE5       30.33R
DE QUEEN       CLOUDY    40  29  64 E5        30.29S
$$

ARZ056-057-069-311400-
SOUTHEAST ARKANSAS

CITY           SKY/WX    TMP DP  RH WIND       PRES   REMARKS
PINE BLUFF     CLOUDY    38  30  73 SE6       30.35S
STUTTGART      CLOUDY    39  27  60 E6        30.35S
MONTICELLO     CLOUDY    36  29  75 E6        30.34S

$$





USA.gov is the U.S. government's official web portal to all federal, state and local government web resources and services.